{"data":{"norad_id":56321,"intl_designator":"2023-058E","name":"STARLINK-5876","alt_names":[],"object_type":"PAYLOAD","status":"ACTIVE","operator":null,"country":"US","launch_date":"2023-04-27","launch_site_code":"AFWTR","launch_vehicle":null,"mission":null,"orbit_class":"UNKNOWN","rcs_meters":null,"size_class":null,"mass_kg":null,"dimensions":null,"purposes":["comms"],"wikipedia_slug":null,"has_3d_model":false,"image_url":null,"decayed_at":null,"tle_current":{"epoch":"2026-05-25T00:15:25.890048Z","epoch_age_seconds":69999,"freshness":"FRESH","line1":"1 56321U 23058E   26145.01071632 -.00035061  00000+0 -24380-2 0  9998","line2":"2 56321  97.4479 146.1243 0001453  96.8370 263.3022 15.05647453169336","mean_motion":15.05647453,"eccentricity":0.0001453,"inclination_deg":97.4479,"raan_deg":146.1243,"arg_perigee_deg":96.837,"mean_anomaly_deg":263.3022,"bstar":-0.002438,"rev_number":16933,"period_min":95.639918702801,"perigee_km":548.51237830815,"apogee_km":550.52555513208,"semimajor_km":6927.6559667201,"source":"CELESTRAK","updated_at":"2026-05-25T13:38:18.000369Z"}}}